Voltar ao catálogo

STARLINK-1893

AtivoComunicaçõesVLEO
NORAD 46786·PAYLOAD·🇺🇸 United States

Lançado Oct 24, 2020 de Cape Canaveral Space Force Station

Loading…

Próximas Passagens (próximas 24 horas)

TLE

AtualizadoSource: CelesTrak SupGP

Época: Sep 14, 2026, 20:51 UTC

1 46786C 20074AZ  26257.86923611  .01760100  00000+0  10045-2 0  2575
2 46786  53.0275  46.1079 0010489 306.5923 221.1350 16.18170215    19

Acompanhe STARLINK-1893 em tempo real com AllMySat

Download on the App Store